Regional Weather Roundup
Issued by NWS

Home | Current Version | Previous Version | Graphics & Text | Print | Product List | Glossary On
Versions: 1 2 3 4 5 6 7 8 9 10 11 12 13 14 15 16 17 18 19 20 21 22 23 24 25 26 27 28 29 30 31 32 33 34 35 36 37 38 39 40 41 42 43 44 45 46 47 48 49 50
000
ASUS43 KBIS 242331
RWRND
NORTH DAKOTA REGIONAL WEATHER ROUNDUP
NATIONAL WEATHER SERVICE EASTERN NORTH DAKOTA/GRAND FORKS ND
600 PM CDT SAT JUN 24 2017

  NOTE: "FAIR" INDICATES FEW OR NO CLOUDS BELOW 12,000 FEET WITH NO
  SIGNIFICANT WEATHER AND/OR OBSTRUCTIONS TO VISIBILITY.

NDZ001>003-009>011-017-250000-
...NORTHWEST NORTH DAKOTA...

CITY           SKY/WX    TMP DP  RH WIND       PRES   REMARKS
WILLISTON      PTSUNNY   68  34  28 N16       30.28S
MINOT          PTSUNNY   61  41  47 N14G24    30.24S
MINOT AFB      FAIR      61  39  44 N14G24    30.23S
$$

NDZ018>021-031>035-040>046-250000-
...SOUTHWEST NORTH DAKOTA...

CITY           SKY/WX    TMP DP  RH WIND       PRES   REMARKS
BISMARCK       PTSUNNY   65  40  39 N17       30.23S
DICKINSON      FAIR      65  29  25 N21G28    30.26S
GARRISON         N/A     62  40  44 N20G25    30.24R
HETTINGER      FAIR      68  31  25 N16G28    30.27S
$$

NDZ004>008-012>016-024-026-027-054-250000-
...NORTHEAST NORTH DAKOTA...

CITY           SKY/WX    TMP DP  RH WIND       PRES   REMARKS
GRAND FORKS    DRIZZLE   53  50  89 NW16G25   30.11R
GRAND FORKS AF LGT RAIN  52  50  93 N20       30.13R
DEVILS LAKE    LGT RAIN  52  42  69 N17G23    30.19R
$$

NDZ022-023-025-028>030-036>039-047>053-250000-
...SOUTHEAST NORTH DAKOTA...

CITY           SKY/WX    TMP DP  RH WIND       PRES   REMARKS
JAMESTOWN      CLOUDY    57  45  64 NW21G28   30.17R
FARGO          CLOUDY    60  48  64 N15G24    30.09R
WAHPETON       CLOUDY    57  48  72 NW15      30.11R
$$




USA.gov is the U.S. government's official web portal to all federal, state and local government web resources and services.